Home > Weather > Dover > Past weeks

Flag for USA Past Weather in Dover, Delaware, USA — Yesterday and Last 2 Weeks

Now
76 °F

Mostly cloudy.


Feels Like: 74 °F
Forecast: 71 / 80 °F
Wind: 6 mph from South

Location: Dover Air Force Base

Current Time: Jun 28, 2016 at 11:20:49 AM

Latest Report: Jun 28, 2016 at 10:58 AM


Visibility: 10 mi

Pressure: 29.95 "Hg

Humidity: 100%

Dew Point: 76 °F

Location of DoverLocation

Past Weather in Dover — Graph

°F

Dover Temperature Yesterday

Maximum temperature yesterday: 82 °F (at 4:58 PM)
Minimum temperature yesterday: 61 °F (at 3:58 AM)
Average temperature yesterday: 72 °F

High & Low Weather Summary for the Past Weeks

 TemperatureHumidityPressure
High90 °F (Jun 20, 3:58 PM)100% (Jun 15, 4:58 AM)30.34 "Hg (Jun 15, 4:58 AM)
Low58 °F (Jun 18, 3:58 AM)33% (Jun 20, 2:58 PM)29.71 "Hg (Jun 16, 5:58 PM)
Average72 °F78%30.01 "Hg
* Reported Jun 13 9:58 AM — Jun 28 9:58 AM, Dover, Weather by CustomWeather, © 2016

Note: Actual official high and low records may vary slightly from our data, if they occured in-between our weather recording intervals... More about our weather records

Advertising

Dover Weather History for the Previous 24 Hours

Scroll right to see more
 ConditionsComfort  
Time TempWeatherWind HumidityBarometerVisibility
9:58 AM
Tue, Jun 28
75 °FOvercast.7 mph100%29.95 "Hg10 mi
8:58 AM74 °FBroken clouds.5 mph100%29.95 "Hg10 mi
7:58 AM73 °FLow clouds.5 mph100%29.95 "Hg10 mi
6:58 AM72 °FLight rain. Low clouds.3 mph100%29.95 "Hg8 mi
5:58 AM72 °FLight rain. Low clouds.5 mph100%29.94 "Hg8 mi
4:58 AM72 °FLight rain. Passing clouds.5 mph100%29.93 "Hg10 mi
4:03 AM72 °FLight rain. Mostly cloudy.5 mph100%29.93 "Hg7 mi
3:58 AM72 °FRain. Mostly cloudy.5 mph100%29.94 "Hg7 mi
3:00 AM73 °FDrizzle. Mostly cloudy.7 mph100%29.94 "Hg10 mi
2:58 AM73 °FMostly cloudy.8 mph100%29.95 "Hg10 mi
1:58 AM74 °FOvercast.8 mph100%29.95 "Hg10 mi
12:58 AM74 °FPartly cloudy.8 mph93%29.97 "Hg10 mi
11:58 PM
Mon, Jun 27
74 °FPassing clouds.7 mph84%29.98 "Hg10 mi
10:58 PM75 °FPassing clouds.8 mph76%29.99 "Hg10 mi
9:58 PM76 °FPartly cloudy.10 mph75%30.00 "Hg10 mi
8:58 PM77 °FScattered clouds.10 mph74%29.99 "Hg10 mi
7:58 PM79 °FOvercast.9 mph63%29.98 "Hg10 mi
6:58 PM80 °FScattered clouds.6 mph74%29.98 "Hg10 mi
5:58 PM80 °FSunny.13 mph75%29.97 "Hg10 mi
4:58 PM82 °FSunny.9 mph74%29.98 "Hg10 mi
3:58 PM81 °FSunny.12 mph73%30.00 "Hg10 mi
2:58 PM80 °FSunny.13 mph75%30.01 "Hg10 mi
1:58 PM81 °FSunny.9 mph71%30.04 "Hg10 mi
12:58 PM80 °FPassing clouds.13 mph72%30.07 "Hg10 mi
11:58 AM79 °FSunny.6 mph66%30.09 "Hg10 mi
Weather by CustomWeather, © 2016

See weather overviewHow to use our weather pages